When you browse on this site, cookies collect data to enhance your experience and personalize the content and advertising you see.
Visit our Privacy Policy to learn more. By continuing to use the site, you agree to this use of cookies and data.
  • In Schweiz
  • Länderverzeichnis
  • Für 7 Tage
  • Wassertemperatur
  • Satellitenkarten
  • Wetterkarte
  • Widgets
  • user-avatar
    Anmelden

    Stündliche Wetter Recife

    Heute, 18 November, Sonntag

    Zeit Temperatur Niederschläge Wind Luftdruck Luftfeuchtigkeit
    00:00 +27°C° 0 mm 5 m/S 759 mmHg 80%
    01:00 +27°C° 0 mm 5 m/S 758 mmHg 81%
    02:00 +27°C° 0.1 mm 5 m/S 758 mmHg 81%
    03:00 +27°C° 0.1 mm 5 m/S 758 mmHg 82%
    04:00 +27°C° 0 mm 5 m/S 758 mmHg 82%
    05:00 +27°C° 0.1 mm 5 m/S 758 mmHg 80%
    06:00 +27°C° 0.1 mm 5 m/S 758 mmHg 77%
    07:00 +28°C° 0.1 mm 6 m/S 758 mmHg 75%
    08:00 +29°C° 0 mm 6 m/S 758 mmHg 69%
    09:00 +30°C° 0 mm 6 m/S 759 mmHg 63%
    10:00 +32°C° 0 mm 6 m/S 759 mmHg 57%
    11:00 +33°C° 0 mm 6 m/S 759 mmHg 55%
    12:00 +33°C° 0 mm 6 m/S 759 mmHg 54%
    13:00 +34°C° 0 mm 5 m/S 758 mmHg 52%
    14:00 +33°C° 0 mm 5 m/S 758 mmHg 53%
    15:00 +33°C° 0 mm 5 m/S 758 mmHg 55%
    16:00 +32°C° 0 mm 5 m/S 757 mmHg 57%
    17:00 +30°C° 0 mm 5 m/S 757 mmHg 62%
    18:00 +29°C° 0 mm 5 m/S 758 mmHg 67%
    19:00 +28°C° 0 mm 5 m/S 758 mmHg 72%
    20:00 +28°C° 0 mm 5 m/S 758 mmHg 73%
    21:00 +28°C° 0 mm 5 m/S 759 mmHg 75%
    22:00 +27°C° 0 mm 4 m/S 759 mmHg 76%
    23:00 +27°C° 0.1 mm 4 m/S 759 mmHg 76%

    Morgen, 19 November, Montag

    Zeit Temperatur Niederschläge Wind Luftdruck Luftfeuchtigkeit
    00:00 +27°C° 0.1 mm 4 m/S 759 mmHg 76%
    01:00 +27°C° 0.1 mm 4 m/S 758 mmHg 76%
    02:00 +27°C° 0.1 mm 4 m/S 758 mmHg 77%
    03:00 +27°C° 0.1 mm 4 m/S 758 mmHg 78%
    04:00 +27°C° 0.1 mm 4 m/S 757 mmHg 79%
    05:00 +27°C° 0.1 mm 4 m/S 757 mmHg 78%
    06:00 +27°C° 0.1 mm 4 m/S 758 mmHg 77%
    07:00 +28°C° 0.1 mm 4 m/S 758 mmHg 76%
    08:00 +29°C° 0.1 mm 4 m/S 758 mmHg 69%
    09:00 +32°C° 0.1 mm 4 m/S 759 mmHg 62%
    10:00 +33°C° 0.1 mm 5 m/S 759 mmHg 56%
    11:00 +33°C° 0.1 mm 5 m/S 759 mmHg 54%
    12:00 +34°C° 0.1 mm 5 m/S 758 mmHg 53%
    13:00 +34°C° 0.1 mm 5 m/S 758 mmHg 51%
    14:00 +34°C° 0 mm 5 m/S 758 mmHg 52%
    15:00 +34°C° 0 mm 5 m/S 757 mmHg 54%
    16:00 +33°C° 0 mm 5 m/S 757 mmHg 55%
    17:00 +32°C° 0.1 mm 5 m/S 757 mmHg 60%
    18:00 +30°C° 0.1 mm 4 m/S 757 mmHg 66%
    19:00 +29°C° 0.1 mm 4 m/S 757 mmHg 71%
    20:00 +28°C° 0.1 mm 4 m/S 758 mmHg 74%
    21:00 +28°C° 0.1 mm 4 m/S 758 mmHg 77%
    22:00 +28°C° 0.1 mm 5 m/S 759 mmHg 79%
    23:00 +28°C° 0.1 mm 4 m/S 759 mmHg 80%

    übermorgen, 20 November, Dienstag

    Zeit Temperatur Niederschläge Wind Luftdruck Luftfeuchtigkeit
    00:00 +27°C° 0.1 mm 4 m/S 759 mmHg 80%
    01:00 +27°C° 0.1 mm 4 m/S 759 mmHg 81%
    02:00 +27°C° 0.1 mm 4 m/S 758 mmHg 81%
    03:00 +27°C° 0.1 mm 4 m/S 758 mmHg 81%
    04:00 +27°C° 0.1 mm 4 m/S 758 mmHg 81%
    05:00 +27°C° 0 mm 4 m/S 758 mmHg 79%
    06:00 +27°C° 0 mm 5 m/S 758 mmHg 77%
    07:00 +28°C° 0 mm 5 m/S 759 mmHg 74%
    08:00 +29°C° 0.1 mm 5 m/S 759 mmHg 69%
    09:00 +30°C° 0.1 mm 5 m/S 759 mmHg 64%
    10:00 +32°C° 0.1 mm 6 m/S 760 mmHg 59%
    11:00 +33°C° 0.1 mm 6 m/S 760 mmHg 57%
    12:00 +33°C° 0.1 mm 6 m/S 759 mmHg 55%
    13:00 +34°C° 0.1 mm 6 m/S 759 mmHg 53%
    14:00 +33°C° 0.1 mm 6 m/S 758 mmHg 55%
    15:00 +33°C° 0.1 mm 6 m/S 758 mmHg 57%
    16:00 +32°C° 0.1 mm 6 m/S 757 mmHg 60%
    17:00 +30°C° 0.1 mm 5 m/S 757 mmHg 65%
    18:00 +29°C° 0.1 mm 5 m/S 758 mmHg 71%
    19:00 +28°C° 0.1 mm 5 m/S 758 mmHg 76%
    20:00 +28°C° 0.1 mm 5 m/S 759 mmHg 78%
    21:00 +28°C° 0.1 mm 5 m/S 759 mmHg 79%
    22:00 +27°C° 0.1 mm 5 m/S 759 mmHg 81%
    23:00 +27°C° 0.3 mm 5 m/S 759 mmHg 82%

    21 November, Mittwoch

    Zeit Temperatur Niederschläge Wind Luftdruck Luftfeuchtigkeit
    00:00 +27°C° 0.3 mm 5 m/S 759 mmHg 83%
    01:00 +27°C° 0.3 mm 5 m/S 759 mmHg 83%
    02:00 +27°C° 0.2 mm 5 m/S 758 mmHg 84%
    03:00 +27°C° 0.2 mm 5 m/S 758 mmHg 84%
    04:00 +27°C° 0.2 mm 5 m/S 758 mmHg 84%
    05:00 +27°C° 0.1 mm 5 m/S 758 mmHg 82%
    06:00 +27°C° 0.1 mm 5 m/S 758 mmHg 80%
    07:00 +28°C° 0.1 mm 5 m/S 759 mmHg 78%
    08:00 +29°C° 0.1 mm 5 m/S 759 mmHg 72%
    09:00 +30°C° 0.1 mm 6 m/S 760 mmHg 66%
    10:00 +32°C° 0.1 mm 6 m/S 760 mmHg 59%
    11:00 +33°C° 0 mm 6 m/S 759 mmHg 57%
    12:00 +33°C° 0 mm 6 m/S 759 mmHg 55%
    13:00 +34°C° 0 mm 6 m/S 758 mmHg 53%
    14:00 +33°C° 0 mm 6 m/S 758 mmHg 56%
    15:00 +33°C° 0 mm 6 m/S 758 mmHg 59%
    16:00 +32°C° 0 mm 6 m/S 757 mmHg 62%
    17:00 +30°C° 0.1 mm 6 m/S 757 mmHg 67%
    18:00 +29°C° 0.1 mm 6 m/S 758 mmHg 71%
    19:00 +28°C° 0.1 mm 6 m/S 758 mmHg 75%
    20:00 +28°C° 0.1 mm 6 m/S 759 mmHg 77%
    21:00 +28°C° 0.1 mm 6 m/S 759 mmHg 78%
    22:00 +27°C° 0.1 mm 6 m/S 759 mmHg 79%
    23:00 +27°C° 0.1 mm 6 m/S 759 mmHg 79%

    22 November, Donnerstag

    Zeit Temperatur Niederschläge Wind Luftdruck Luftfeuchtigkeit
    00:00 +27°C° 0.1 mm 6 m/S 759 mmHg 79%
    01:00 +27°C° 0.1 mm 5 m/S 758 mmHg 80%
    02:00 +27°C° 0.1 mm 5 m/S 758 mmHg 80%
    03:00 +27°C° 0.1 mm 5 m/S 758 mmHg 79%
    04:00 +27°C° 0.1 mm 5 m/S 757 mmHg 79%
    05:00 +27°C° 0.1 mm 5 m/S 758 mmHg 78%
    06:00 +27°C° 0.1 mm 5 m/S 758 mmHg 76%
    07:00 +28°C° 0.1 mm 6 m/S 758 mmHg 75%
    08:00 +29°C° 0.1 mm 6 m/S 758 mmHg 69%
    09:00 +30°C° 0.1 mm 6 m/S 759 mmHg 64%
    10:00 +32°C° 0.1 mm 6 m/S 759 mmHg 58%
    11:00 +32°C° 0 mm 6 m/S 758 mmHg 59%
    12:00 +32°C° 0 mm 6 m/S 758 mmHg 59%
    13:00 +32°C° 0 mm 5 m/S 757 mmHg 59%
    14:00 +32°C° 0.1 mm 5 m/S 757 mmHg 60%
    15:00 +32°C° 0.1 mm 5 m/S 757 mmHg 60%
    16:00 +32°C° 0.1 mm 5 m/S 756 mmHg 60%
    17:00 +30°C° 0.1 mm 5 m/S 757 mmHg 65%
    18:00 +29°C° 0.1 mm 5 m/S 757 mmHg 69%
    19:00 +28°C° 0.1 mm 5 m/S 758 mmHg 73%
    20:00 +28°C° 0.1 mm 5 m/S 758 mmHg 75%
    21:00 +28°C° 0.1 mm 5 m/S 758 mmHg 76%
    22:00 +28°C° 0.1 mm 5 m/S 759 mmHg 77%
    23:00 +27°C° 0.1 mm 5 m/S 758 mmHg 77%

    23 November, Freitag

    Zeit Temperatur Niederschläge Wind Luftdruck Luftfeuchtigkeit
    00:00 +27°C° 0.1 mm 5 m/S 758 mmHg 78%
    01:00 +27°C° 0.1 mm 5 m/S 758 mmHg 78%
    02:00 +27°C° 0.4 mm 5 m/S 757 mmHg 79%
    03:00 +27°C° 0.4 mm 5 m/S 757 mmHg 79%
    04:00 +27°C° 0.4 mm 5 m/S 757 mmHg 80%
    05:00 +27°C° 0.5 mm 5 m/S 757 mmHg 79%
    06:00 +27°C° 0.5 mm 5 m/S 757 mmHg 78%
    07:00 +28°C° 0.5 mm 5 m/S 758 mmHg 77%
    08:00 +29°C° 0.5 mm 5 m/S 758 mmHg 71%
    09:00 +30°C° 0.5 mm 5 m/S 758 mmHg 66%
    10:00 +32°C° 0.5 mm 5 m/S 758 mmHg 60%
    11:00 +33°C° 0.2 mm 6 m/S 758 mmHg 60%
    12:00 +33°C° 0.2 mm 6 m/S 757 mmHg 59%
    13:00 +33°C° 0.2 mm 6 m/S 757 mmHg 58%
    14:00 +33°C° 0.3 mm 6 m/S 757 mmHg 60%
    15:00 +32°C° 0.3 mm 6 m/S 756 mmHg 62%
    16:00 +32°C° 0.3 mm 6 m/S 756 mmHg 64%
    17:00 +30°C° 0.1 mm 5 m/S 757 mmHg 69%
    18:00 +29°C° 0.1 mm 5 m/S 757 mmHg 73%
    19:00 +28°C° 0.1 mm 5 m/S 758 mmHg 78%
    20:00 +28°C° 0.2 mm 5 m/S 758 mmHg 79%
    21:00 +28°C° 0.2 mm 5 m/S 758 mmHg 81%
    22:00 +28°C° 0.2 mm 5 m/S 758 mmHg 82%
    23:00 +27°C° 0.1 mm 5 m/S 758 mmHg 83%
    Mehr zeigen